Погода в Шяуляе

Литва     55°55′58″N   23°19′03″E
темп.,
°C
ветер,
м/с
пор.,
м/с
влажн.,
%
обл.,
%
осадки,
мм/ч
давл.,
гПа
погр.,
м
15 апреля, чт
чт1500:00+3ссв61373100 0.0 1023434
03:00+3ссв51284100 0.3 1023747
06:00+4св61277100 0.1 1023751
09:00+4ссв61274100 0.1 1023636
12:00+8св81159100 0.0 1023978
15:00+10св81050100 0.0 10221319
18:00+10св71052100 0.0 10211388
21:00+7ссв61356100 0.0 1022580
16 апреля, пт
пт1600:00+5св71165100 0.0 1021893
03:00+5ссв61268100 0.0 1020664
06:00+4ссв71276100 0.0 1020592
09:00+4ссв61289100 0.2 1020577
12:00+5св51190100 0.4 1020657
15:00+6св51092100 0.9 1020701
18:00+8св6986100 0.0 1020685
21:00+7св41090100 0.1 1022470
17 апреля, сб
сб1700:00+8св41092100 0.0 1022394
03:00+7св51193100 0.0 1022365
06:00+7св51094100 0.0 1022336
09:00+7св51092100 0.2 1023430
12:00+8всв4789100 0.0 1024439
15:00+11всв5780100 0.0 1024883
18:00+11всв577850 0.0 1024810
21:00+10всв4989100 0.1 1024359
18 апреля, вс
вс1800:00+10всв41088100 0.2 1024374
03:00+9всв4109199 0.3 1024322
06:00+8всв4109262 0.0 1024338
09:00+10всв6128299 0.0 1023515
12:00+13в796756 0.0 1023987
15:00+13вюв5875100 0.3 10231038
18:00+12юв577885 0.3 1023835
21:00+9вюв3792100 0.4 1024235
19 апреля, пн
пн1900:00+9вюв499082 0.1 1024430
03:00+8в3793100 0.1 1024300
06:00+8в3795100 0.0 1024240
09:00+10в478846 0.2 1023386
12:00+13в577426 0.1 1022925
15:00+14вюв696899 0.8 10211269
18:00+13вюв710725 0.8 10201206
21:00+10в4108597 0.8 1020351